Device Time, Air Fuel Ratio(Commanded)(:1),Air Fuel Ratio(Measured)(:1),Ambient air temp(°F),Barometric pressure (from vehicle)(psi),Catalyst Temperature (Bank 1 Sensor 1)(°F),Engine Coolant Temperature(°F),Engine Load(%),Engine Load(Absolute)(%),Engine RPM(rpm),Fuel Rail Pressure(psi),Fuel Trim Bank 1 Long Term(%),Fuel Trim Bank 1 Short Term(%),Intake Air Temperature(°F),Intake Manifold Pressure(psi),Throttle Position(Manifold)(%),Timing Advance(°)
04-Jun-2023 10:57:31.999,14.69999981,-,141.8,14.5037738,1259.96002197,176,26.27450943,56.47058868,2722,941.29491962,-21.09375,11.71875,100.4,10.87783035,21.96078491,37.5
04-Jun-2023 10:57:32.099,14.69999981,-,141.8,14.5037738,1259.96002197,176,26.66666603,56.47058868,2722,936.94378748,-21.09375,11.71875,100.4,10.87783035,21.96078491,37.5
04-Jun-2023 10:57:32.199,14.69999981,-,141.8,14.5037738,1259.96002197,176,26.27450943,54.50980377,2722,890.53171132,-21.09375,11.71875,100.4,10.87783035,21.96078491,35
04-Jun-2023 10:57:32.300,14.69999981,-,141.8,14.5037738,1259.96002197,176,25.09803963,54.50980377,2709,836.86774826,-21.09375,11.71875,100.4,10.44271714,21.56862831,33
04-Jun-2023 10:57:32.399,14.69999981,-,141.8,14.5037738,1259.96002197,176,24.31372643,49.41176605,2709,828.16548398,-21.875,11.71875,100.4,10.00760392,21.56862831,21
04-Jun-2023 10:57:32.500,14.69999981,-,141.8,14.5037738,1259.96002197,176,23.13725471,49.41176605,2790,819.4632197,-21.875,11.71875,100.4,9.57249071,20.7843132,36.5
04-Jun-2023 10:57:32.600,14.69999981,-,141.8,14.5037738,1259.96002197,176,21.96078491,47.05882263,2790,819.4632197,-21.875,12.5,100.4,9.28241523,20.7843132,36
04-Jun-2023 10:57:32.700,14.69999981,-,141.8,14.5037738,1259.96002197,176,21.96078491,47.05882263,2790,819.4632197,-21.875,12.5,100.4,9.28241523,20.7843132,36
04-Jun-2023 10:57:32.800,14.69999981,-,141.8,14.5037738,1259.96002197,176,21.96078491,47.05882263,2790,819.4632197,-21.875,12.5,100.4,9.28241523,20.7843132,36
04-Jun-2023 10:57:32.900,14.69999981,-,141.8,14.5037738,1259.96002197,176,20,43.92156982,2795,790.4556721,-21.875,12.5,100.4,8.70226428,20.7843132,36
04-Jun-2023 10:57:32.999,14.69999981,-,141.8,14.5037738,1259.96002197,177.8,20,42.35293961,2795,786.10453996,-21.875,11.71875,100.4,8.26715107,20,37.5
04-Jun-2023 10:57:33.099,14.69999981,-,141.8,14.5037738,1259.96002197,177.8,19.2156868,42.35293961,2800.5,786.10453996,-21.875,10.9375,100.4,8.26715107,19.6078434,42.5
04-Jun-2023 10:57:33.199,14.69999981,-,141.8,14.5037738,1265.72004395,177.8,18.03921509,39.2156868,2800.5,781.75340782,-21.875,10.15625,100.4,7.97707559,19.2156868,43.5
04-Jun-2023 10:57:33.300,14.69999981,-,141.8,14.5037738,1265.72004395,177.8,17.25490189,38.03921509,2798,784.65416258,-22.65625,10.9375,100.4,7.68700011,19.2156868,43.5
04-Jun-2023 10:57:33.399,14.69999981,-,141.8,14.5037738,1265.72004395,177.8,17.25490189,34.90196228,2794.5,778.85265306,-22.65625,10.9375,100.4,7.39692464,19.2156868,46.5
04-Jun-2023 10:57:33.500,14.69999981,-,141.8,14.5037738,1265.72004395,177.8,16.07843208,34.90196228,2794.5,767.24963402,-22.65625,10.9375,100.4,7.39692464,18.8235302,46.5
04-Jun-2023 10:57:33.601,14.69999981,-,141.8,14.5037738,1265.72004395,177.8,16.07843208,33.33333206,2794.5,759.99774712,-22.65625,9.375,100.4,7.39692464,18.8235302,46.5
04-Jun-2023 10:57:33.702,14.69999981,-,141.8,14.5037738,1265.72004395,177.8,15.29411793,25.88235283,2795.5,764.34887926,-22.65625,10.15625,100.4,7.10684916,18.8235302,48
04-Jun-2023 10:57:33.801,14.69999981,-,141.8,14.5037738,1265.72004395,177.8,11.76470566,22.35294151,2795.5,768.7000114,-25,10.9375,100.4,5.80150952,18.8235302,49.5
04-Jun-2023 10:57:33.899,14.69999981,-,141.8,14.5037738,1265.72004395,177.8,10.1960783,20.7843132,2753.5,748.39472808,-25,10.9375,100.4,5.22135857,16.47058868,37.5
04-Jun-2023 10:57:33.999,14.69999981,-,141.8,14.5037738,1265.72004395,177.8,9.4117651,20.7843132,2753.5,754.1962376,-26.5625,11.71875,100.4,4.93128309,16.47058868,35
04-Jun-2023 10:57:34.098,14.69999981,-,141.8,14.5037738,1265.72004395,177.8,8.62745094,19.2156868,2751,754.1962376,-26.5625,13.28125,100.4,4.49616988,16.47058868,37.5
04-Jun-2023 10:57:34.199,14.69999981,-,141.8,14.5037738,1265.72004395,177.8,7.84313726,18.03921509,2751,773.05114354,-26.5625,12.5,100.4,4.2060944,16.47058868,39.5
04-Jun-2023 10:57:34.299,14.69999981,-,141.8,14.5037738,1265.72004395,177.8,7.45098019,16.86274529,2687,781.75340782,-27.34375,14.0625,100.4,4.06105666,16.07843208,39.5
04-Jun-2023 10:57:34.400,14.69999981,-,141.8,14.5037738,1265.72004395,177.8,8.62745094,19.2156868,2687,773.05114354,-27.34375,14.0625,100.4,4.49616988,16.07843208,36.5
04-Jun-2023 10:57:34.499,14.69999981,-,141.8,14.5037738,1265.72004395,177.8,8.62745094,19.2156868,2687,803.50906852,-25.78125,14.84375,100.4,4.49616988,18.43137169,30
04-Jun-2023 10:57:34.599,14.69999981,-,141.8,14.5037738,1265.72004395,177.8,8.62745094,19.2156868,2687,803.50906852,-25.78125,14.84375,100.4,4.49616988,18.43137169,30
04-Jun-2023 10:57:34.700,14.69999981,-,141.8,14.5037738,1265.72004395,177.8,8.62745094,29.41176414,2664.5,803.50906852,-25.78125,14.84375,100.4,6.52669821,18.43137169,30
04-Jun-2023 10:57:34.801,14.69999981,-,141.8,14.5037738,1265.72004395,177.8,14.11764717,30.98039246,2671,738.24208642,-23.4375,12.5,100.4,6.67173595,18.8235302,29
04-Jun-2023 10:57:34.900,14.69999981,-,141.8,14.5037738,1265.72004395,177.8,14.50980377,32.15686417,2671,745.49397332,-23.4375,10.9375,100.4,6.96181142,18.8235302,35
04-Jun-2023 10:57:35.000,14.69999981,-,141.8,14.5037738,1265.72004395,177.8,15.68627453,32.15686417,2671,745.49397332,-23.4375,10.15625,100.4,6.96181142,19.6078434,45.5
04-Jun-2023 10:57:35.099,14.69999981,-,141.8,14.5037738,1265.72004395,177.8,16.86274529,35.29411697,2643.5,746.9443507,-22.65625,7.8125,98.6,7.39692464,19.6078434,45.5
04-Jun-2023 10:57:35.199,14.69999981,-,141.8,14.5037738,1265.72004395,177.8,18.03921509,37.64706039,2643.5,738.24208642,-22.65625,7.8125,98.6,7.97707559,19.6078434,45.5
04-Jun-2023 10:57:35.299,14.69999981,-,141.8,14.5037738,1266.97995605,177.8,18.03921509,41.5686264,2643.5,739.6924638,-22.65625,5.46875,98.6,7.97707559,20.3921566,43.5
04-Jun-2023 10:57:35.399,14.69999981,-,141.8,14.5037738,1266.97995605,177.8,19.6078434,41.5686264,2657.5,739.6924638,-22.65625,3.90625,98.6,8.55722654,20.3921566,42
04-Jun-2023 10:57:35.499,14.69999981,-,141.8,14.5037738,1266.97995605,177.8,20,42.35293961,2661,748.39472808,-21.875,3.125,98.6,8.55722654,20.3921566,41
04-Jun-2023 10:57:35.599,14.69999981,-,141.8,14.5037738,1266.97995605,177.8,20,43.13725662,2661,754.1962376,-21.875,3.125,98.6,8.70226428,20.3921566,41
04-Jun-2023 10:57:35.699,14.69999981,-,141.8,14.5037738,1266.97995605,177.8,20,43.52941132,2672,757.09699236,-21.875,2.34375,98.6,8.70226428,20.7843132,42
04-Jun-2023 10:57:35.799,14.69999981,-,141.8,14.5037738,1266.97995605,177.8,20.3921566,43.52941132,2672,755.64661498,-21.875,2.34375,98.6,8.70226428,20.7843132,40.5
04-Jun-2023 10:57:35.899,14.69999981,-,141.8,14.5037738,1266.97995605,177.8,20.3921566,43.52941132,2684,752.74586022,-21.875,2.34375,98.6,8.70226428,20.7843132,40.5
04-Jun-2023 10:57:35.999,14.69999981,-,141.8,14.5037738,1266.97995605,177.8,20.3921566,43.52941132,2684,752.74586022,-21.875,1.5625,98.6,8.70226428,20.7843132,41
04-Jun-2023 10:57:36.099,14.69999981,-,141.8,14.5037738,1266.97995605,177.8,20,43.13725662,2695.5,758.54736974,-21.875,2.34375,98.6,8.70226428,20.7843132,41
04-Jun-2023 10:57:36.200,14.69999981,-,141.8,14.5037738,1266.97995605,177.8,20,43.13725662,2695.5,757.09699236,-21.875,2.34375,98.6,8.70226428,20.3921566,41
04-Jun-2023 10:57:36.299,14.69999981,-,141.8,14.5037738,1266.97995605,177.8,20.3921566,43.52941132,2713,759.99774712,-21.875,1.5625,98.6,8.70226428,20.3921566,41
04-Jun-2023 10:57:36.399,14.69999981,-,141.8,14.5037738,1266.97995605,177.8,20.3921566,43.52941132,2713,759.99774712,-21.875,1.5625,98.6,8.70226428,20.3921566,41
04-Jun-2023 10:57:36.501,14.69999981,-,141.8,14.5037738,1266.97995605,177.8,20.3921566,43.52941132,2730,759.99774712,-21.875,1.5625,98.6,8.70226428,20.3921566,41
04-Jun-2023 10:57:36.600,14.69999981,-,141.8,14.5037738,1266.97995605,177.8,20,43.52941132,2730,759.99774712,-21.875,1.5625,98.6,8.70226428,20.3921566,41
04-Jun-2023 10:57:36.700,14.69999981,-,141.8,14.5037738,1266.97995605,177.8,20,43.52941132,2730,759.99774712,-21.875,1.5625,98.6,8.70226428,20.3921566,41
04-Jun-2023 10:57:36.801,14.69999981,-,141.8,14.5037738,1271.3,177.8,20,43.13725662,2777.5,758.54736974,-21.875,1.5625,98.6,8.55722654,20.3921566,41
04-Jun-2023 10:57:36.900,14.69999981,-,141.8,14.5037738,1271.3,177.8,20,43.13725662,2777.5,758.54736974,-21.875,0.78125,98.6,8.55722654,20.3921566,41
04-Jun-2023 10:57:37.001,14.69999981,-,141.8,14.5037738,1271.3,177.8,20,43.13725662,2777.5,761.4481245,-21.875,1.5625,98.6,8.70226428,20.3921566,41
04-Jun-2023 10:57:37.099,14.69999981,-,141.8,14.5037738,1271.3,177.8,20,43.13725662,2758,754.1962376,-21.875,1.5625,98.6,8.55722654,20.3921566,41
04-Jun-2023 10:57:37.200,14.69999981,-,141.8,14.5037738,1271.3,177.8,20,42.74509811,2758,754.1962376,-21.875,0.78125,98.6,8.55722654,20.3921566,41
04-Jun-2023 10:57:37.302,14.69999981,-,141.8,14.5037738,1271.3,177.8,20,42.74509811,2794.5,754.1962376,-21.875,0.78125,98.6,8.55722654,20.3921566,42.5
04-Jun-2023 10:57:37.400,14.69999981,-,141.8,14.5037738,1271.3,179.6,18.03921509,39.60784149,2794.5,773.05114354,-21.875,0.78125,98.6,7.97707559,20.3921566,42.5
04-Jun-2023 10:57:37.500,14.69999981,-,141.8,14.5037738,1271.3,179.6,18.03921509,39.60784149,2794.5,767.24963402,-22.65625,1.5625,98.6,7.97707559,19.6078434,44
04-Jun-2023 10:57:37.601,14.69999981,-,141.8,14.5037738,1271.3,179.6,17.25490189,37.25490189,2797.5,767.24963402,-22.65625,1.5625,98.6,7.68700011,19.6078434,44
04-Jun-2023 10:57:37.702,14.69999981,-,141.8,14.5037738,1271.3,179.6,17.25490189,37.25490189,2817,768.7000114,-22.65625,1.5625,98.6,7.68700011,19.6078434,44
04-Jun-2023 10:57:37.803,14.69999981,-,141.8,14.5037738,1271.3,179.6,17.25490189,37.64706039,2817,762.89850188,-22.65625,2.34375,98.6,7.68700011,19.6078434,44
04-Jun-2023 10:57:37.901,14.69999981,-,141.8,14.5037738,1271.3,179.6,17.25490189,37.64706039,2836.5,762.89850188,-22.65625,3.125,98.6,7.68700011,19.6078434,44
04-Jun-2023 10:57:38.001,14.69999981,-,141.8,14.5037738,1275.43997803,179.6,17.25490189,37.64706039,2836.5,755.64661498,-22.65625,3.125,98.6,7.68700011,19.6078434,44
04-Jun-2023 10:57:38.100,14.69999981,-,141.8,14.5037738,1275.43997803,179.6,16.86274529,36.47058868,2839.5,755.64661498,-22.65625,4.6875,98.6,7.54196238,19.6078434,45.5
04-Jun-2023 10:57:38.201,14.69999981,-,141.8,14.5037738,1275.43997803,179.6,16.86274529,36.07843018,2839.5,761.4481245,-22.65625,4.6875,98.6,7.39692464,19.6078434,45.5
04-Jun-2023 10:57:38.299,14.69999981,-,141.8,14.5037738,1275.43997803,179.6,16.86274529,36.07843018,2839.5,761.4481245,-22.65625,4.6875,98.6,7.39692464,19.6078434,45.5
04-Jun-2023 10:57:38.404,14.69999981,-,141.8,14.5037738,1275.43997803,179.6,16.47058868,36.07843018,2839.5,761.4481245,-22.65625,4.6875,98.6,7.39692464,19.6078434,45.5
04-Jun-2023 10:57:38.501,14.69999981,-,141.8,14.5037738,1275.43997803,179.6,16.47058868,36.07843018,2839.5,764.34887926,-22.65625,3.90625,98.6,7.39692464,19.6078434,45.5
04-Jun-2023 10:57:38.601,14.69999981,-,141.8,14.5037738,1275.43997803,179.6,16.86274529,36.07843018,2872,764.34887926,-22.65625,3.90625,98.6,7.54196238,19.6078434,45.5
04-Jun-2023 10:57:38.700,14.69999981,-,141.8,14.5037738,1275.43997803,179.6,16.86274529,36.07843018,2872,764.34887926,-22.65625,3.125,98.6,7.54196238,19.6078434,45.5
04-Jun-2023 10:57:38.801,14.69999981,-,141.8,14.5037738,1275.43997803,181.4,16.86274529,33.72549057,2894.5,755.64661498,-22.65625,3.125,98.6,6.96181142,19.6078434,45.5
04-Jun-2023 10:57:38.901,14.69999981,-,141.8,14.5037738,1275.43997803,181.4,15.29411793,33.72549057,2894.5,755.64661498,-22.65625,2.34375,98.6,6.96181142,18.8235302,48.5
04-Jun-2023 10:57:39.000,14.69999981,-,141.8,14.5037738,1275.43997803,181.4,15.29411793,31.76470566,2911,762.89850188,-22.65625,2.34375,98.6,6.81677369,18.8235302,48.5
04-Jun-2023 10:57:39.101,14.69999981,-,141.8,14.5037738,1275.43997803,181.4,14.50980377,38.03921509,2911,761.4481245,-23.4375,1.5625,98.6,6.81677369,18.8235302,48
04-Jun-2023 10:57:39.201,14.69999981,-,141.8,14.5037738,1275.43997803,181.4,40,38.03921509,2911,761.4481245,-23.4375,0,98.6,11.60301904,18.8235302,48
04-Jun-2023 10:57:39.301,14.37700176,-,141.8,14.5037738,1278.5,181.4,40,109.41176605,2911,909.38661726,-20.3125,0,98.6,11.60301904,54.11764526,12
04-Jun-2023 10:57:39.403,14.37700176,-,141.8,14.5037738,1278.5,181.4,59.60784149,109.41176605,3062,909.38661726,-20.3125,0.78125,98.6,16.82437761,56.86274338,11
04-Jun-2023 10:57:39.500,13.85661602,-,141.8,14.5037738,1278.5,181.4,59.60784149,132.94117737,3059.5,1113.88982784,-19.53125,0.78125,98.6,20.45032106,56.86274338,11
04-Jun-2023 10:57:39.600,13.50849628,-,141.8,14.5037738,1278.5,181.4,62.35293961,132.94117737,3059.5,1331.44643484,-19.53125,6.25,98.6,20.45032106,56.86274338,9
04-Jun-2023 10:57:39.701,13.50849628,-,141.8,14.5037738,1278.5,181.4,67.84313965,149.01960754,3277.5,1331.44643484,-19.53125,11.71875,98.6,22.77092487,76.07843018,13.5
04-Jun-2023 10:57:39.800,13.17473125,-,141.8,14.5037738,1278.5,181.4,67.84313965,160.39215088,3277.5,1601.21662752,-19.53125,11.71875,98.6,24.51137772,76.07843018,13.5
04-Jun-2023 10:57:39.901,13.17473125,-,141.8,14.5037738,1278.5,181.4,72.15686035,160.39215088,3479.5,1601.21662752,-19.53125,13.28125,98.6,24.51137772,84.31372833,9
04-Jun-2023 10:57:40.000,12.86250019,-,141.8,14.5037738,1278.5,181.4,80,178.43136597,3479.5,1852.13191426,-19.53125,10.9375,98.6,26.54190605,84.31372833,9
04-Jun-2023 10:57:40.100,12.86250019,-,141.8,14.5037738,1278.5,181.4,80,178.43136597,3479.5,1852.13191426,-19.53125,10.9375,98.6,26.54190605,83.92156982,7.5
04-Jun-2023 10:57:40.200,12.86250019,-,141.8,14.5037738,1278.5,181.4,80,178.43136597,3479.5,1852.13191426,-19.53125,10.9375,98.6,26.54190605,83.92156982,7.5
04-Jun-2023 10:57:40.302,12.47131348,-,141.8,14.5037738,1278.5,181.4,80,178.43136597,3479.5,2394.57305438,-19.53125,10.9375,98.6,26.54190605,83.92156982,7.5
04-Jun-2023 10:57:40.401,12.47131348,-,141.8,14.5037738,1278.5,181.4,80,198.03921509,3946,2394.57305438,-19.53125,10.9375,98.6,30.02281177,83.92156982,7.5
04-Jun-2023 10:57:40.502,12.47131348,-,141.8,14.5037738,1278.5,181.4,85.88235474,198.03921509,3946,2394.57305438,-18.75,9.375,98.6,30.02281177,83.92156982,10.5
04-Jun-2023 10:57:40.601,12.32058144,-,141.8,14.5037738,1331.96002197,181.4,85.88235474,199.21568298,3946,2636.78607684,-18.75,9.375,98.6,30.02281177,83.92156982,10.5
04-Jun-2023 10:57:40.703,12.32058144,-,141.8,14.5037738,1331.96002197,181.4,86.27451324,199.21568298,4518,2636.78607684,-18.75,13.28125,98.6,31.18311367,83.92156982,12
04-Jun-2023 10:57:40.801,12.23444843,-,141.8,14.5037738,1331.96002197,181.4,86.27451324,199.21568298,4518,2664.34324706,-18.75,13.28125,98.6,31.18311367,83.92156982,12
04-Jun-2023 10:57:40.901,12.23444843,-,141.8,14.5037738,1331.96002197,181.4,87.84313965,201.96078491,4742,2664.34324706,-18.75,13.28125,98.6,32.19837784,83.92156982,12
04-Jun-2023 10:57:41.001,12.19497108,-,141.8,14.5037738,1331.96002197,181.4,87.84313965,196.47058105,4912,2690.4500399,-18.75,13.28125,98.6,31.03807593,84.31372833,11
04-Jun-2023 10:57:41.099,12.15908241,-,141.8,14.5037738,1331.96002197,181.4,83.92156982,191.76470947,4912,2693.35079466,-18.75,13.28125,98.6,31.03807593,44.31372452,10.5
04-Jun-2023 10:57:41.200,12.14113808,-,141.8,14.5037738,1331.96002197,181.4,82.35294342,190.98039246,4912,2712.2057006,-18.75,11.71875,98.6,30.31288724,44.31372452,11
04-Jun-2023 10:57:41.302,12.14113808,-,141.8,14.5037738,1331.96002197,181.4,81.96078491,190.98039246,5098.5,2712.2057006,-18.75,10.9375,98.6,30.31288724,44.31372452,11
04-Jun-2023 10:57:41.401,12.12678242,-,141.8,14.5037738,1331.96002197,181.4,84.31372833,196.47058105,5098.5,2738.31249344,-18.75,8.59375,98.6,31.32815141,44.31372452,11
04-Jun-2023 10:57:41.499,12.11242676,-,141.8,14.5037738,1331.96002197,181.4,84.31372833,204.70588684,5341,2723.80871964,-18.75,8.59375,98.6,31.76326462,74.90196228,12
04-Jun-2023 10:57:41.599,12.10165977,-,141.8,14.5037738,1331.96002197,181.4,86.66666412,210.58824158,5341,2758.61777676,-18.75,7.03125,98.6,31.76326462,74.90196228,12.5
04-Jun-2023 10:57:41.702,12.10165977,-,141.8,14.5037738,1331.96002197,179.6,89.41176605,210.58824158,5566.5,2758.61777676,-18.75,3.90625,98.6,32.63349105,74.90196228,12.5
04-Jun-2023 10:57:41.801,12.10165977,-,141.8,14.5037738,1424.47995605,179.6,89.41176605,210.58824158,5566.5,2802.12909816,-18.75,3.90625,98.6,32.63349105,84.70587921,13.5
04-Jun-2023 10:57:41.900,12.08730507,-,141.8,14.5037738,1424.47995605,179.6,89.41176605,220.78431702,5820.5,2802.12909816,-18.75,3.90625,98.6,32.77852879,84.70587921,13.5
04-Jun-2023 10:57:42.002,12.08730507,-,141.8,14.5037738,1424.47995605,179.6,89.41176605,220.78431702,5820.5,2802.12909816,-18.75,3.90625,98.6,32.77852879,84.70587921,13.5
04-Jun-2023 10:57:42.100,12.08730507,-,141.8,14.5037738,1424.47995605,179.6,89.41176605,220.78431702,5820.5,2802.12909816,-18.75,3.90625,98.6,32.77852879,84.70587921,13.5
04-Jun-2023 10:57:42.199,12.08730507,-,141.8,14.5037738,1424.47995605,179.6,89.80392456,220.78431702,5820.5,2829.68626838,-18.75,1.5625,98.6,32.77852879,54.90196228,14
04-Jun-2023 10:57:42.302,12.07294941,-,141.8,14.5037738,1424.47995605,179.6,89.80392456,216.47058105,6257.5,2829.68626838,-18.75,0.78125,96.8,32.19837784,62.74509811,14
04-Jun-2023 10:57:42.401,12.06936073,-,141.8,14.5037738,1424.47995605,179.6,89.80392456,216.86274719,6448.5,2816.63287196,-18.75,0.78125,96.8,31.90830236,62.74509811,14
04-Jun-2023 10:57:42.500,12.06936073,-,141.8,14.5037738,1424.47995605,179.6,88.62744904,216.86274719,6448.5,2816.63287196,-18.75,0,96.8,31.90830236,84.31372833,15
04-Jun-2023 10:57:42.601,12.0657711,-,141.8,14.5037738,1424.47995605,179.6,88.62744904,210.98039246,6662,2813.7321172,-18.75,0,96.8,31.76326462,84.31372833,15
04-Jun-2023 10:57:42.701,12.0657711,-,141.8,14.5037738,1424.47995605,179.6,87.05882263,210.98039246,6662,2813.7321172,-18.75,0.78125,96.8,31.76326462,84.31372833,16.5
04-Jun-2023 10:57:42.802,12.0657711,-,141.8,14.5037738,1424.47995605,179.6,86.27451324,209.41175842,6662,2831.13664576,-18.75,0,96.8,31.03807593,84.31372833,16.5
04-Jun-2023 10:57:42.901,12.06218243,-,141.8,14.5037738,1424.47995605,179.6,86.27451324,205.88235474,6662,2825.33513624,-18.75,0,96.8,31.03807593,83.92156982,15.5
04-Jun-2023 10:57:43.001,12.06218243,-,141.8,14.5037738,1424.47995605,179.6,84.70587921,205.88235474,6855.5,2825.33513624,-18.75,0,96.8,31.03807593,83.92156982,15.5
04-Jun-2023 10:57:43.100,12.06218243,-,141.8,14.5037738,1424.47995605,179.6,84.70587921,205.88235474,6855.5,2825.33513624,-18.75,2.34375,96.8,31.03807593,71.37255096,3.5
04-Jun-2023 10:57:43.202,29.39955139,-,141.8,14.5037738,1478.83997803,179.6,84.70587921,187.84313965,6898,2693.35079466,-18.75,2.34375,96.8,29.44266081,71.37255096,3.5
04-Jun-2023 10:57:43.301,29.39955139,-,141.8,14.5037738,1478.83997803,179.6,78.4313736,187.84313965,6898,2693.35079466,-18.75,0,96.8,29.44266081,65.49019623,-10
04-Jun-2023 10:57:43.400,12.77636719,-,141.8,14.5037738,1478.83997803,179.6,78.4313736,92.54901886,6980,2411.97758294,-18.75,0,96.8,12.90835868,65.49019623,-10
04-Jun-2023 10:57:43.501,12.77636719,-,141.8,14.5037738,1478.83997803,179.6,18.8235302,92.54901886,6980,2411.97758294,-19.53125,9.375,96.8,12.90835868,20.3921566,51
04-Jun-2023 10:57:43.601,12.72971153,-,141.8,14.5037738,1478.83997803,179.6,18.8235302,15.29411793,6726.5,2599.07626496,-19.53125,9.375,96.8,3.0457925,20.3921566,51
04-Jun-2023 10:57:43.700,12.72971153,-,141.8,14.5037738,1478.83997803,179.6,5.88235283,15.29411793,6726.5,2599.07626496,-22.65625,2.34375,96.8,3.0457925,18.03921509,-19.5
04-Jun-2023 10:57:43.803,13.25009727,-,141.8,14.5037738,1478.83997803,179.6,5.88235283,19.2156868,6726.5,2674.49588872,-22.65625,2.34375,96.8,3.0457925,18.03921509,-19.5
04-Jun-2023 10:57:43.902,13.25009727,-,141.8,14.5037738,1478.83997803,179.6,5.88235283,19.2156868,6726.5,2674.49588872,-22.65625,2.34375,96.8,3.0457925,18.03921509,-19.5
04-Jun-2023 10:57:44.000,13.25009727,-,141.8,14.5037738,1478.83997803,179.6,5.88235283,19.2156868,6832,2674.49588872,-22.65625,2.34375,96.8,3.33586797,18.03921509,-19.5
04-Jun-2023 10:57:44.100,13.92480469,-,141.8,14.5037738,1478.83997803,179.6,6.27450991,19.2156868,6832,2588.9236233,-21.875,-10.9375,96.8,3.33586797,19.6078434,22.5
04-Jun-2023 10:57:44.199,13.92480469,-,141.8,14.5037738,1478.83997803,179.6,6.66666651,16.86274529,6832,2588.9236233,-21.875,-10.15625,96.8,3.33586797,19.6078434,8
04-Jun-2023 10:57:44.301,14.12578106,-,141.8,14.5037738,1478.83997803,179.6,6.66666651,16.86274529,6785.5,2596.1755102,-21.875,-10.15625,96.8,3.48090571,19.6078434,8
04-Jun-2023 10:57:44.402,14.12578106,-,141.8,14.5037738,1478.83997803,179.6,6.27450991,16.86274529,6785.5,2596.1755102,-21.875,-10.15625,96.8,3.48090571,19.6078434,9
04-Jun-2023 10:57:44.502,14.32316875,-,141.8,14.5037738,1502.6,179.6,6.27450991,16.47058868,6765.5,2528.00777334,-21.875,-10.15625,96.8,3.33586797,19.6078434,9
04-Jun-2023 10:57:44.603,14.32316875,-,141.8,14.5037738,1502.6,179.6,6.27450991,16.47058868,6765.5,2528.00777334,-21.875,-9.375,96.8,3.33586797,19.6078434,9.5
04-Jun-2023 10:57:44.700,14.44160175,-,141.8,14.5037738,1502.6,179.6,6.27450991,16.47058868,6765.5,2442.43550792,-21.875,-9.375,96.8,3.33586797,19.6078434,9.5
04-Jun-2023 10:57:44.803,14.44160175,-,141.8,14.5037738,1502.6,179.6,6.27450991,16.47058868,6711,2442.43550792,-21.875,-10.15625,96.8,3.33586797,19.6078434,3.5
04-Jun-2023 10:57:44.899,14.50620079,-,141.8,14.5037738,1502.6,179.6,6.27450991,16.47058868,6654.5,2436.6339984,-21.875,-10.15625,96.8,3.33586797,19.6078434,3.5
04-Jun-2023 10:57:44.999,14.50620079,-,141.8,14.5037738,1502.6,179.6,6.27450991,16.47058868,6654.5,2436.6339984,-21.875,-10.9375,96.8,3.33586797,19.6078434,10.5
04-Jun-2023 10:57:45.100,14.66411114,-,141.8,14.5037738,1502.6,179.6,6.27450991,16.47058868,6607.5,2497.54984836,-21.875,-11.71875,96.8,3.48090571,19.6078434,10.5
04-Jun-2023 10:57:45.200,14.69999981,-,141.8,14.5037738,1502.6,179.6,6.27450991,16.47058868,6513,2471.44305552,-21.875,-11.71875,96.8,3.48090571,19.6078434,10.5
04-Jun-2023 10:57:45.300,14.69999981,-,141.8,14.5037738,1502.6,179.6,6.27450991,16.47058868,6513,2461.29041386,-22.65625,-10.9375,96.8,3.48090571,19.2156868,9.5
04-Jun-2023 10:57:45.399,14.69999981,-,141.8,14.5037738,1502.6,179.6,6.27450991,16.07843208,6513,2461.29041386,-22.65625,-7.8125,96.8,3.33586797,19.2156868,9.5
04-Jun-2023 10:57:45.499,14.69999981,-,141.8,14.5037738,1502.6,179.6,6.27450991,16.86274529,6123.5,2443.8858853,-22.65625,-7.8125,96.8,7.54196238,19.2156868,15.5
04-Jun-2023 10:57:45.599,14.69999981,-,141.8,14.5037738,1502.6,179.6,24.70588303,16.86274529,6123.5,2443.8858853,-22.65625,-2.34375,96.8,7.54196238,54.11764526,34.5
04-Jun-2023 10:57:45.700,14.69999981,-,141.8,14.5037738,1502.6,179.6,24.70588303,16.86274529,6123.5,2443.8858853,-22.65625,-2.34375,96.8,7.54196238,54.11764526,34.5
04-Jun-2023 10:57:45.800,14.69999981,-,141.8,14.5037738,1502.6,179.6,24.70588303,16.86274529,6123.5,2443.8858853,-19.53125,-2.34375,96.8,7.54196238,54.11764526,34.5
04-Jun-2023 10:57:45.900,13.34340858,-,141.8,14.5037738,1502.6,181.4,24.70588303,146.66667175,6123.5,2612.12966138,-19.53125,-2.34375,96.8,25.23656641,54.11764526,34.5
04-Jun-2023 10:57:46.000,13.34340858,-,141.8,14.5037738,1502.6,181.4,65.88235474,146.66667175,4540.5,2612.12966138,-19.53125,17.1875,96.8,25.23656641,68.23529053,9.5
04-Jun-2023 10:57:46.100,12.91992188,-,141.8,14.5037738,1534.27995605,181.4,65.88235474,174.90196228,4540.5,2551.21381142,-18.75,17.1875,96.8,29.0075476,68.23529053,9.5
04-Jun-2023 10:57:46.199,12.73688984,-,141.8,14.5037738,1534.27995605,181.4,78.4313736,186.27450562,4631.5,2587.47324592,-18.75,15.625,96.8,30.31288724,83.92156982,7.5